Temp
7 7 7 7 7 7 7 8 8 8 8 8 8 8 8 8 8 7 7 10 9 10 10 11 11 11 12 12 13 13 14 18 18 19 19 19 20 19 20 20 19 17 18 18 17
7 7 7 7 7 7 7 7 7 7 7 8 8 8 8 8 7 7 9 9 10 10 10 10 9 10 11 12 13 13 16 18 18 18 18 18 19 19 19 19 18 18 19 18 16
7 7 7 7 7 7 7 7 7 7 7 7 7 8 8 7 6 8 10 10 9 9 10 10 10 10 10 12 13 14 16 18 19 18 18 18 17 18 19 18 18 17 18 16 16
7 7 7 7 7 7 8 7 7 7 7 7 7 7 7 7 8 11 10 10 9 9 9 10 9 9 10 10 13 13 16 17 17 17 18 17 17 17 18 18 17 18 17 16 16
7 7 7 8 7 7 9 7 7 7 7 7 8 8 8 6 6 11 11 10 9 9 9 8 8 9 8 10 11 13 14 17 16 16 16 17 16 17 18 18 17 17 17 16 16
6 7 7 7 7 7 9 8 8 7 8 8 8 8 7 6 11 11 10 9 9 8 8 8 8 9 10 10 9 14 14 16 14 15 15 16 16 17 17 16 17 17 17 16 15
7 7 7 7 7 8 9 10 9 8 10 9 8 8 7 7 11 10 9 9 9 8 8 8 8 8 10 9 11 14 12 14 14 15 15 16 17 16 17 16 16 16 16 16 15
6 6 7 7 8 8 9 10 11 11 11 10 9 8 7 11 10 10 9 8 7 7 7 7 8 8 10 10 11 12 13 14 15 15 14 16 16 16 14 14 16 16 15 15 16
6 7 7 7 8 8 10 10 11 11 11 10 9 8 6 11 11 11 8 7 7 7 7 8 8 9 10 8 10 12 13 14 14 15 13 16 15 13 15 14 14 15 15 14 15
6 7 7 8 8 8 10 11 11 12 10 10 9 7 9 9 10 10 9 8 8 9 8 8 9 8 8 8 12 11 12 13 15 14 14 14 14 14 14 14 13 15 15 15 14
6 7 7 7 7 8 10 11 6 7 7 9 8 7 8 11 10 10 9 8 10 8 8 7 9 8 9 9 12 12 14 13 14 14 14 14 15 14 14 15 13 15 16 15 16
7 7 7 7 6 7 8 4 5 4 5 6 6 6 8 8 8 10 9 10 9 8 8 8 9 9 9 10 12 13 14 13 13 13 14 14 14 15 14 14 16 17 17 15 16
7 7 7 7 7 7 5 5 5 5 4 6 8 8 9 9 8 9 7 8 9 9 7 9 10 11 12 12 14 14 14 14 14 13 14 13 14 15 15 15 16 17 16 16 15
6 6 7 7 7 6 5 5 5 5 -1 7 8 10 9 8 9 9 8 7 10 9 10 9 11 11 11 11 13 13 15 14 13 14 14 15 14 15 15 16 16 17 18 16 15
6 6 7 7 7 5 5 5 5 5 4 7 7 10 8 8 8 9 9 8 7 7 9 11 11 11 10 12 14 13 14 14 14 13 14 14 14 15 15 15 16 17 17 17 16
6 6 6 6 6 5 5 5 5 1 4 5 6 6 7 7 8 9 8 8 8 8 9 9 10 10 11 12 13 14 13 12 11 12 11 14 14 15 15 16 17 17 16 17 17
6 6 6 6 5 5 5 4 2 3 3 3 4 5 6 6 7 8 8 7 7 6 6 7 9 8 9 13 13 12 11 9 9 8 11 12 13 14 16 16 16 15 14 13 13
6 6 6 6 6 5 5 0 2 -5 -4 4 5 6 6 6 6 6 8 7 8 7 8 6 7 8 8 10 11 12 12 9 9 9 12 12 14 15 13 14 13 13 12 12 12
6 6 6 5 5 5 0 -2 0 -4 3 4 5 2 1 6 5 6 4 6 7 7 8 9 6 9 9 9 11 12 9 12 9 3 9 12 14 15 13 13 12 12 11 11 11
6 5 5 5 5 5 -2 1 -3 2 4 4 1 2 -1 0 3 2 4 6 6 7 7 8 6 8 7 9 12 12 12 11 7 7 9 12 13 12 12 12 12 11 10 10 10
5 0 5 5 5 -2 -1 -4 -4 2 4 4 2 -0 2 1 -1 2 4 6 5 6 7 8 7 7 8 8 8 9 10 10 10 10 10 11 12 13 12 12 11 10 10 10 10
2 -0 4 5 -1 -10 -6 -5 3 3 4 2 3 4 3 3 1 1 4 6 5 5 6 7 8 8 9 9 9 9 9 9 8 10 9 11 11 12 12 11 11 11 11 11 10
-2 -3 4 5 -1 -4 -2 -5 0 3 4 3 2 4 5 5 2 4 2 5 5 5 5 6 6 7 8 7 8 9 9 9 8 8 9 9 11 11 11 11 10 11 10 10 10
-3 -0 -2 -1 -3 -3 -4 -5 -1 3 4 4 4 4 3 2 -0 1 5 6 4 5 7 6 5 4 5 6 7 9 11 10 8 6 8 9 11 11 10 10 9 9 8 9 9
-4 -3 -4 -2 -2 -2 -3 -2 -2 -0 3 4 3 4 3 0 2 1 0 4 5 4 4 2 0 3 5 5 7 8 9 9 9 9 9 9 9 10 9 8 8 8 8 8 8
-0 -2 -4 -5 -1 -1 -2 -4 1 2 2 2 3 4 3 2 4 1 4 3 2 3 4 3 -1 -1 -1 3 4 6 7 7 8 9 8 8 7 8 8 7 6 6 7 7 7
-0 1 0 2 -1 -1 -1 -1 2 3 3 4 4 3 3 4 4 4 4 3 4 3 -0 -2 -6 -6 -2 -2 0 2 4 8 8 8 9 8 8 7 7 7 6 6 6 6 6
Height
837 834 834 832 830 829 827 826 824 821 818 816 813 811 809 806 803 800 795 793 792 791 791 787 787 787 788 785 780 776 775 763 765 765 765 763 763 764 763 765 763 771 771 771 773
836 834 832 830 828 825 824 822 820 818 817 815 812 810 808 805 801 796 789 791 792 789 788 787 787 789 785 780 775 771 761 752 756 758 763 764 761 766 766 769 774 767 765 769 774
834 832 830 831 828 824 823 821 819 816 814 812 810 808 807 805 802 793 792 792 791 789 788 788 785 790 786 779 773 762 756 752 752 754 756 761 764 765 766 777 777 782 775 777 774
832 831 829 826 826 822 818 818 816 814 812 810 808 806 805 806 807 793 793 792 789 789 789 786 786 789 787 783 771 770 754 750 754 753 756 761 762 767 767 774 776 770 769 775 776
832 831 829 824 825 821 818 815 812 811 809 808 807 805 805 807 802 792 790 789 787 787 788 788 787 785 788 783 775 767 763 750 755 756 758 757 765 767 766 772 773 768 767 775 777
831 829 828 825 823 822 819 815 810 808 806 806 806 805 806 809 791 789 787 785 784 785 784 784 783 782 780 782 785 761 761 755 757 758 757 759 765 768 769 771 773 774 772 776 780
831 829 828 824 822 819 815 812 808 805 803 804 804 804 806 801 789 786 784 780 777 778 779 780 782 782 777 784 776 761 768 758 758 757 763 761 769 776 773 773 783 780 777 776 779
830 828 826 823 820 817 814 809 805 802 800 800 800 802 800 791 788 784 780 774 771 772 775 776 779 781 777 776 766 764 766 761 756 760 765 763 774 774 774 773 780 778 781 778 775
828 827 824 821 818 814 811 805 802 801 798 798 799 801 799 787 786 782 778 772 771 771 772 773 777 778 777 786 772 761 761 761 762 759 767 766 778 779 775 774 781 781 779 780 775
827 824 823 818 815 811 807 801 802 801 800 799 800 804 791 788 784 781 777 774 773 771 771 773 773 779 783 783 760 761 764 766 758 764 764 767 780 782 780 778 782 783 779 777 775
825 823 822 817 815 813 806 802 807 807 803 806 807 805 795 787 784 782 776 774 773 775 774 780 772 773 770 775 758 757 760 766 766 766 769 774 779 783 780 781 785 779 775 776 775
823 822 820 817 815 813 810 811 821 821 817 806 805 803 795 791 787 782 777 776 779 777 778 777 778 774 776 770 762 755 762 771 770 771 773 781 784 779 780 779 773 773 771 773 773
821 820 819 816 813 816 816 817 819 819 821 810 803 801 796 793 791 788 786 783 781 780 782 777 776 769 765 767 754 756 763 763 766 775 777 784 784 779 776 776 774 766 770 768 768
820 819 817 814 817 819 819 819 819 820 852 819 809 802 797 794 792 789 788 790 780 783 779 778 768 768 774 774 764 764 757 761 768 778 783 778 788 778 774 770 768 769 765 763 764
819 819 818 814 818 819 822 818 820 820 856 821 815 805 800 802 803 790 788 787 791 790 781 778 773 777 782 774 762 768 762 768 774 779 782 783 789 777 774 775 770 765 759 756 761
819 818 816 816 818 822 821 820 822 849 859 833 822 819 809 807 802 796 793 792 791 787 782 783 774 778 780 771 766 765 769 778 787 789 807 787 787 781 776 769 768 768 765 759 758
818 819 816 813 818 820 822 823 847 853 848 847 835 826 824 821 811 805 805 808 811 816 815 799 790 789 784 774 772 775 786 813 822 833 812 798 792 784 772 767 773 775 771 769 766
816 818 815 814 818 819 824 840 855 887 880 838 832 827 826 829 823 821 814 818 814 817 810 820 817 803 797 792 793 786 787 819 832 824 802 799 793 785 782 779 780 780 777 775 773
815 814 814 814 816 819 831 871 857 867 838 835 832 848 850 829 831 830 842 831 824 822 815 808 825 803 802 798 792 790 808 797 815 859 823 805 790 784 785 784 786 785 783 782 779
812 811 811 814 815 817 842 848 861 841 832 836 853 847 870 855 844 848 843 836 832 826 825 816 830 811 808 798 791 788 792 805 826 851 833 806 798 801 796 794 791 791 791 788 784
812 814 810 812 814 827 852 867 860 839 831 835 846 856 845 854 862 849 841 832 837 827 823 818 821 819 810 817 816 811 805 805 811 816 821 816 808 800 800 801 800 797 794 793 788
810 824 810 809 832 863 863 859 836 834 833 837 839 834 837 839 851 852 842 833 836 834 831 823 819 815 810 812 813 813 813 813 826 817 823 810 813 801 802 803 800 796 792 790 790
812 816 807 807 841 852 847 856 842 837 834 835 841 835 832 835 853 840 847 833 832 835 835 829 834 830 823 826 818 813 815 814 823 826 826 831 817 805 805 804 802 799 796 794 792
811 822 817 812 825 833 852 859 849 835 832 831 832 833 836 843 851 853 837 831 833 833 828 828 836 845 845 834 826 819 808 813 822 845 826 819 809 805 808 810 808 806 802 799 796
808 816 815 829 829 830 835 843 847 845 834 832 835 835 837 856 849 850 853 838 832 834 833 844 864 852 839 837 829 824 819 815 815 821 820 819 818 811 812 814 815 813 808 804 802
805 812 815 822 817 823 830 844 828 831 831 836 835 833 834 844 835 849 837 843 846 839 839 842 873 870 873 851 846 830 824 824 824 819 823 824 829 821 819 820 819 817 815 813 810
793 796 798 807 819 823 825 828 820 819 825 823 826 831 835 831 833 833 834 840 839 842 856 865 889 900 887 877 862 862 837 819 818 818 818 823 821 824 823 822 822 820 818 816 813
Wind_Speed
6 7 9 11 11 13 14 15 16 17 17 17 17 18 19 20 23 23 13 9 6 13 18 22 20 18 15 5 6 4 5 15 17 15 5 1 5 3 1 2 4 3 1 4 27
6 8 9 10 12 13 14 15 16 17 17 17 18 17 18 19 21 20 12 2 8 12 16 9 9 10 4 5 6 6 13 19 7 5 6 3 6 1 4 5 5 8 17 17 30
7 8 9 12 13 14 15 17 18 18 18 18 17 16 15 15 6 4 7 2 12 10 8 9 8 4 6 8 10 9 13 11 5 6 9 5 5 3 6 5 4 8 3 11 24
7 8 10 11 13 15 16 18 19 19 19 18 16 13 11 7 4 1 3 14 13 17 16 7 5 3 6 6 10 13 15 15 6 4 6 5 5 5 4 3 3 9 10 11 14
7 9 11 12 15 16 18 19 20 19 19 16 13 9 4 3 7 7 11 14 13 16 9 4 4 4 6 6 12 14 10 16 6 10 5 9 7 3 2 4 7 6 8 9 9
8 10 12 13 15 18 21 21 20 19 16 13 9 4 2 5 6 14 13 15 17 12 7 8 5 8 5 9 15 3 11 13 7 5 3 2 5 5 4 7 9 5 3 3 5
9 11 13 15 17 19 21 21 22 21 10 9 4 1 3 11 10 18 19 21 23 18 16 9 6 4 7 5 12 15 5 7 6 7 4 5 2 6 6 9 7 6 5 5 4
10 11 13 16 17 21 21 22 23 13 6 7 2 3 5 12 17 22 24 23 21 17 17 12 10 4 5 6 7 6 2 7 6 8 3 8 13 2 8 10 9 8 4 7 8
10 12 13 15 18 21 22 24 10 6 7 2 2 4 8 12 18 21 20 9 6 4 9 9 9 4 4 6 4 5 4 3 7 15 3 12 3 4 8 7 6 9 6 6 7
10 11 13 14 17 18 23 14 5 3 4 2 2 1 5 10 22 19 19 9 4 1 3 4 4 4 1 4 7 8 5 1 3 6 7 10 3 2 5 4 10 10 7 6 7
10 11 13 13 15 15 23 3 8 5 9 2 5 4 8 24 7 21 24 7 2 6 3 4 1 4 8 15 6 8 11 7 1 5 5 8 12 9 4 5 7 14 8 6 7
10 12 12 10 10 10 13 6 2 2 5 4 6 5 15 8 5 16 25 5 5 3 1 3 3 7 12 13 9 7 9 5 1 9 5 8 9 7 8 7 6 8 9 9 4
9 10 9 8 1 6 13 6 1 1 2 6 5 5 8 5 2 9 8 5 2 4 6 5 3 8 7 1 7 6 6 4 7 7 2 5 3 4 6 10 9 14 8 6 8
6 7 7 3 4 2 3 9 4 2 5 8 7 5 10 3 3 6 5 1 3 2 3 4 6 12 6 4 2 6 3 9 17 7 3 3 1 3 6 8 6 8 11 7 6
4 5 5 4 4 3 6 1 4 1 3 10 8 9 10 6 6 7 5 5 5 5 2 1 6 8 8 4 2 2 6 6 5 4 3 4 3 2 2 2 6 11 13 10 5
4 3 1 2 5 5 5 8 2 6 3 7 6 8 7 7 8 6 7 5 2 6 6 4 3 5 1 4 3 1 7 8 5 3 3 3 2 3 1 1 1 4 9 8 5
3 3 1 5 3 6 6 3 5 6 4 7 4 6 4 7 9 10 9 11 8 7 9 8 5 8 6 5 6 8 6 3 4 4 3 5 3 4 6 5 4 7 8 9 9
5 3 2 5 4 2 5 5 5 2 5 3 2 4 5 7 6 9 5 9 8 7 4 4 6 10 10 4 1 5 2 4 5 3 2 3 2 2 5 7 7 6 7 9 10
4 3 2 3 4 3 5 4 7 7 4 2 1 6 6 4 3 5 6 5 4 9 5 4 5 4 2 4 2 3 5 2 5 3 3 2 4 3 9 11 10 10 10 9 9
2 2 4 2 0 5 4 3 2 3 2 1 3 2 2 4 4 5 5 4 7 8 8 4 3 1 6 3 3 3 2 3 3 3 1 3 3 3 9 9 9 11 9 9 8
3 3 5 2 5 5 3 6 4 5 2 2 3 3 2 1 2 2 2 1 6 7 7 4 2 5 3 6 3 6 3 4 4 3 3 2 2 1 4 5 6 7 7 7 7
4 1 2 5 4 2 3 5 3 2 2 2 1 2 3 2 3 1 2 2 7 4 4 3 3 2 1 2 1 2 2 2 3 2 1 1 2 1 3 4 5 7 7 4 5
3 2 1 3 3 1 2 3 1 3 3 4 1 2 0 2 3 1 2 4 5 6 3 4 3 2 3 5 4 4 2 3 4 2 1 4 3 4 6 8 9 9 9 8 7
3 1 3 3 1 8 6 3 1 2 3 3 3 1 3 2 3 3 1 2 5 5 8 1 3 3 4 3 0 2 2 1 3 2 3 3 3 5 7 7 9 10 9 8 8
2 4 3 2 2 4 4 5 5 4 2 3 2 3 4 3 2 1 2 3 3 10 4 4 3 4 3 5 2 3 3 1 3 3 2 3 2 5 8 8 6 5 8 10 10
5 4 2 3 3 6 1 6 9 4 6 4 3 5 4 4 4 6 3 2 2 5 4 3 1 2 4 6 6 3 4 4 3 3 5 6 5 5 5 5 7 7 7 6 7
5 3 3 6 3 4 5 7 9 9 3 3 6 5 4 3 4 2 3 2 3 2 2 3 3 3 4 6 7 5 4 1 1 2 3 4 2 3 5 6 6 7 7 7 7
Wind_Direction
354 349 344 342 343 341 339 338 336 335 333 332 332 328 325 322 315 311 277 271 285 306 310 301 282 287 291 247 224 240 219 214 204 192 156 51 142 343 179 85 57 12 137 282 156
339 339 337 334 338 333 331 329 329 328 328 328 326 324 323 323 316 296 292 167 330 332 334 277 278 330 282 252 239 220 220 217 176 155 156 132 110 308 69 52 11 357 356 154 155
330 330 333 333 331 331 325 323 324 325 326 324 321 321 322 325 330 271 126 59 351 345 334 320 252 317 276 258 247 220 233 208 177 141 137 127 83 30 103 61 71 315 246 181 160
320 327 327 325 321 323 323 324 323 324 323 320 322 329 329 332 334 28 232 307 321 327 336 326 269 189 266 266 247 257 241 215 191 162 126 108 110 97 82 110 288 307 189 188 177
327 326 324 327 323 325 324 324 321 323 320 320 324 339 1 14 254 313 311 304 301 307 288 272 279 204 221 236 301 256 286 227 231 171 119 107 82 103 245 95 349 343 133 187 178
329 331 328 332 330 327 325 324 322 320 320 320 321 332 30 284 267 301 279 283 285 281 253 222 227 216 233 234 270 263 226 241 172 163 114 111 77 5 81 33 19 344 150 173 195
329 331 333 334 331 326 325 325 322 317 317 332 312 290 228 259 300 306 285 288 283 256 255 236 246 241 168 287 239 268 309 214 194 201 126 92 293 255 79 69 325 352 321 240 196
325 333 334 333 333 328 328 327 320 319 307 319 227 204 249 280 313 317 321 293 277 263 237 245 226 225 212 271 275 197 296 212 166 190 179 110 210 11 52 66 3 351 320 273 233
320 328 330 333 333 331 332 326 322 330 320 149 158 151 268 324 332 338 341 308 319 221 240 211 192 205 170 251 249 143 182 170 166 184 132 160 169 351 339 40 352 313 316 278 239
315 322 324 332 335 336 340 329 337 352 70 57 64 75 298 317 327 335 350 353 272 202 112 181 193 172 84 244 181 159 143 22 169 146 145 148 103 317 291 61 306 290 298 304 272
305 316 319 332 337 345 352 33 19 349 32 115 289 249 280 314 342 350 349 332 109 36 31 69 112 202 210 230 260 114 146 121 173 84 91 163 209 245 265 299 191 280 278 265 255
302 314 317 331 339 356 27 69 163 266 321 295 264 261 273 296 316 351 358 31 25 34 17 77 344 207 226 228 277 90 120 112 105 145 91 159 218 216 186 247 243 244 250 246 225
305 317 324 339 303 348 61 58 220 186 32 302 268 275 307 356 332 335 14 326 20 24 60 71 220 231 142 251 48 53 107 130 125 154 252 117 251 196 220 215 247 270 256 260 225
312 324 334 15 138 46 36 357 160 195 69 322 342 350 332 297 348 318 358 292 331 34 183 122 299 92 114 326 16 66 75 93 119 150 147 242 290 224 220 243 269 295 268 258 251
316 332 10 58 120 76 327 55 153 101 39 319 308 314 321 48 274 335 20 351 2 305 271 41 7 80 105 242 307 330 67 81 97 69 91 352 67 269 115 230 264 272 286 275 240
304 326 1 97 93 10 333 147 139 45 262 332 326 349 7 356 342 314 19 15 289 351 16 16 333 54 342 315 28 170 66 53 60 48 35 316 111 325 249 175 308 288 301 305 284
314 306 52 101 93 346 156 85 37 112 348 306 333 355 338 343 358 12 14 34 14 16 2 338 5 332 27 39 15 53 56 40 17 15 208 331 63 248 315 308 358 332 5 13 13
317 256 157 118 4 54 155 45 81 208 231 280 341 319 52 349 6 358 16 19 20 360 35 38 343 0 342 53 50 25 60 139 171 174 152 8 234 21 298 13 31 26 20 19 19
296 191 155 139 351 151 76 49 201 190 176 212 65 58 346 8 43 39 13 19 341 0 8 358 314 330 270 327 15 328 47 175 106 24 64 294 293 96 7 26 19 17 20 7 4
215 159 153 320 38 125 78 231 201 203 141 103 126 141 102 313 49 58 14 314 341 357 331 348 346 333 291 323 2 76 160 57 9 84 330 346 2 323 359 355 357 8 11 359 360
172 59 146 355 135 54 157 216 220 235 144 167 193 123 153 136 122 88 344 251 355 321 322 316 107 300 25 20 6 357 29 47 107 106 144 122 285 289 2 350 350 354 5 2 1
132 55 79 142 59 44 136 192 199 161 126 153 122 134 146 167 95 124 144 170 346 312 4 328 327 56 102 213 220 98 105 62 114 232 13 115 266 6 17 6 7 358 343 354 8
144 198 73 123 144 149 157 307 233 138 182 157 187 190 112 96 88 180 244 261 17 28 26 323 343 46 358 2 8 32 22 77 90 53 231 123 261 17 52 15 352 344 346 351 351
95 102 336 57 82 132 142 200 99 301 174 153 138 138 95 71 41 185 327 359 346 9 8 342 72 143 181 207 262 296 11 85 99 96 179 217 291 313 333 350 349 349 349 355 351
62 232 200 206 263 125 104 134 141 167 300 186 26 216 154 109 24 47 293 341 33 1 32 75 104 9 335 10 319 252 277 143 185 166 189 210 262 299 327 336 8 351 9 14 6
150 147 343 140 117 109 218 216 164 179 150 224 186 183 167 153 178 182 162 133 195 359 47 13 149 93 319 351 358 282 302 260 222 178 229 266 287 2 42 39 26 12 8 17 353
167 128 110 157 124 109 197 183 193 143 230 219 161 136 170 206 171 154 113 125 133 109 97 70 96 53 275 344 339 349 214 194 153 194 182 203 194 343 31 50 23 3 7 357 346